Dewpoint
78 76 77 77 76 75 75 71 73 73 71 70 70 70 71 68 69 69 67 69 71 69
77 76 76 76 76 73 73 70 70 68 68 68 69 70 70 68 69 69 68 67 68 68
75 76 75 74 72 71 70 70 69 68 68 69 69 69 69 67 68 68 67 64 67 67
73 72 72 70 70 70 69 70 69 70 69 69 68 69 69 68 68 66 68 68 67 67
72 70 67 68 68 69 69 69 69 70 70 69 68 68 67 67 66 66 66 67 68 67
69 66 66 67 67 68 69 69 67 69 69 68 68 67 67 68 66 66 66 66 67 66
67 66 64 67 69 68 69 69 68 69 69 68 67 67 65 65 65 65 64 65 66 67
70 69 68 68 68 68 68 68 69 69 68 67 64 59 65 65 64 64 63 63 63 66
70 69 68 68 68 68 68 68 68 68 67 66 58 61 62 62 62 63 63 62 62 62
70 68 68 67 68 68 68 68 68 67 66 66 66 61 62 60 62 61 62 63 61 57
69 68 68 67 67 68 68 68 68 67 66 66 65 60 61 60 63 62 62 62 61 60
68 68 67 67 67 67 67 67 66 66 66 66 66 60 60 61 62 60 61 62 60 58
69 69 68 68 68 69 68 66 64 66 66 62 65 59 59 60 60 58 57 61 61 58
70 70 69 69 69 68 67 67 67 66 66 65 63 62 58 56 59 57 53 51 49 58
Lifted_Index
-8 -8 -7 -7 -7 -6 -4 -3 -2 -1 -0 0 1 0 0 0 0 0 1 1 0 -0
-8 -8 -8 -7 -6 -4 -3 -2 -1 0 1 1 1 1 0 1 1 1 1 2 1 1
-8 -8 -7 -5 -4 -2 -1 0 1 1 1 1 1 1 1 1 2 2 2 2 2 2
-7 -6 -5 -3 -2 -0 0 1 1 1 1 1 1 1 2 2 2 2 2 2 2 2
-5 -4 -3 -2 -1 0 1 1 1 1 1 2 2 2 2 2 2 3 2 2 2 2
-4 -3 -2 -1 -0 0 1 1 1 1 1 2 2 2 3 3 3 3 3 2 2 2
-3 -2 -1 -0 0 0 1 1 1 1 1 2 2 2 3 3 3 4 4 3 3 2
-3 -2 -1 -0 -0 0 0 1 1 1 1 2 2 3 3 4 4 4 4 4 4 4
-3 -2 -1 -1 -1 -0 0 0 1 1 1 2 2 3 4 4 4 4 4 5 5 5
-3 -2 -2 -1 -1 -1 -0 0 0 1 1 2 2 3 4 5 5 4 4 5 6 6
-3 -3 -2 -1 -1 -0 -0 0 1 1 2 2 2 3 4 4 5 4 4 4 5 6
-3 -3 -2 -2 -1 -1 -0 0 1 1 2 2 2 3 4 4 5 5 4 4 5 7
-4 -3 -3 -2 -1 -1 0 1 1 2 2 3 3 4 4 5 5 5 5 5 6 7
-4 -3 -3 -2 -1 -0 0 1 1 2 2 3 3 4 5 5 6 6 6 7 7 6